228  
ASUS41 KAKQ 222315  
RWRAKQ  
 
REGIONAL WEATHER ROUNDUP  
NATIONAL WEATHER SERVICE WAKEFIELD VA  
600 PM EST WED JAN 22 2020  
 
NOTE: "FAIR" INDICATES FEW OR NO CLOUDS BELOW 12,000 FEET WITH NO  
SIGNIFICANT WEATHER AND/OR S TO VISIBILITY
. * = DENOTES  
STATION MAY NOT REPORT PRECIPITATION (E.G., RAIN,SNOW,ETC.),
 
THUNDER OR FOG.  
 
VAZ042-051-052>054-056-230000-  
NORTHERN VIRGINIA  
 
CITY SKY/WX TMP DP RH WIND PRES REMARKS
 
WASH NATIONAL MOCLDY 38 17 42 CALM 30.45R  
DULLES FAIR 33 12 41 CALM 30.43R  
FORT BELVOIR FAIR 34 15 45 CALM 30.44R  
QUANTICO FAIR 32 22 66 NW5 30.45S  
FREDERICKSBRG* FAIR 35 21 56 CALM 30.44S  
STAFFORD* FAIR 32 17 54 CALM 30.48S  
WARRENTON FAIR 28 15 59 CALM 30.43R  
CULPEPER* NOT AVBL  
MANASSAS* FAIR 28 19 69 CALM 30.45R  
LEESBURG* FAIR 34 18 51 E3 30.44R  
WINCHESTER NOT AVBL  
FRONT ROYAL* FAIR 34 14 44 CALM 30.38S  
LURAY* FAIR 32 12 43 CALM 30.37F  

 
 
VAZ048-049-060>072-079>083-230000-  
CENTRAL AND SOUTH CENTRAL VIRGINIA  
 
CITY SKY/WX TMP DP RH WIND PRES REMARKS
 
RICHMOND FAIR 37 18 46 CALM 30.43R  
CHESTERFIELD* FAIR 33 18 53 CALM 30.43R  
PETERSBURG* FAIR 29 19 67 CALM 30.43R  
HANOVER FAIR 31 19 61 CALM 30.44R  
TAPPAHANNOCK* FAIR 32 19 58 CALM 30.45R  
QUINTON* FAIR 33 18 52 CALM 30.43R  
CHARLOTTSVILLE FAIR 38 11 32 E5 30.40R  
GORDONSVILLE* FAIR 32 16 52 CALM 30.41R  
ORANGE* FAIR 32 19 59 CALM 30.42R  
LOUISA* NOT AVBL  
BUMPASS* FAIR 32 14 48 S3 30.42R  
FARMVILLE* FAIR 33 14 44 CALM 30.40R  
CREWE* FAIR 31 12 44 CALM 30.41R  
FORT PICKETT* FAIR 35 17 47 N3 30.40S  
CHASE CITY* FAIR 36 16 43 CALM 30.40R  
CLARKSVILLE* NOT AVBL  
SOUTH HILL* FAIR 34 15 45 N3 30.45S  
LAWRENCEVILLE* FAIR 35 15 44 CALM 30.41R  
EMPORIA* FAIR 34 19 54 N5 30.42S  

 
 
VAZ088>098-230000-  
SOUTHEAST VIRGINIA  
 
CITY SKY/WX TMP DP RH WIND PRES REMARKS
 
NORFOLK FAIR 39 29 67 N9 30.42R  
VIRGINIA BEACH MOCLDY 34 28 79 N6 30.42R  
NORFOLK NAVAL FAIR 37 28 70 N10 30.44S  
WEST POINT* FAIR 31 21 65 CALM 30.46R  
SALUDA* FAIR 34 22 61 NE3 30.44R  
NEWPORT NEWS FAIR 34 22 61 NE5 30.44R  
LANGLEY AFB CLEAR 34 25 69 NE2 30.43R  
FORT EUSTIS CLEAR 37 22 55 E5 30.42R  
WILLIAMSBURG* FAIR 36 25 64 CALM 30.44R  
HR EXEC AP* FAIR 31 26 82 N3 30.43S  
FRANKLIN* FAIR 35 24 64 NE3 30.43R  
US460-WAKEFLD FAIR 32 20 61 N3 30.43R  

 
 
VAZ020-022-025-037-045-230000-  
WEST CENTRAL AND SOUTHWEST VIRGINIA  
 
CITY SKY/WX TMP DP RH WIND PRES REMARKS
 
STAUNTON* FAIR 32 12 43 CALM 30.37F  
WAYNESBORO* FAIR 34 13 43 SE3 30.35S  
HOT SPRINGS VA FAIR 33 5 30 CALM 30.27S  
LYNCHBURG FAIR 34 10 37 CALM 30.38R  
DANVILLE FAIR 35 13 40 NE3 30.38S  
SOUTH BOSTON* FAIR 37 10 32 CALM 30.39F  
MARTINSVILLE FAIR 33 17 51 CALM 30.39R  
ROANOKE FAIR 41 9 26 E5 30.36F  
BLACKSBURG NOT AVBL  
DUBLIN* FAIR 38 17 43 CALM 30.32R  
MARION* FAIR 38 18 43 CALM 30.30S  
HILLSVILLE* NOT AVBL  
RICHLANDS* FAIR 42 7 23 SW3 30.27S  
WISE* FAIR 41 10 28 CALM 30.27F  
ABINGDON* NOT AVBL  

 
 
MDZ021>025-VAZ099-100-230000-  
SOUTHERN MARYLAND AND THE DELMARVA PENINSULA  
 
CITY SKY/WX TMP DP RH WIND PRES REMARKS
 
PATUXENT RIVER FAIR 34 22 61 CALM 30.44R  
BAY BRIDGE APT FAIR 32 18 55 CALM 30.44S  
LEONARDTOWN FAIR 32 21 64 CALM 30.47R  
DOVER FAIR 30 19 64 CALM 30.44R  
GEORGETOWN NOT AVBL  
EASTON CLEAR 34 18 51 CALM 30.48R  
CAMBRIDGE CLEAR 32 19 59 CALM 30.44R  
SALISBURY FAIR 32 17 54 CALM 30.43R  
TANGIER NOT AVBL  
OCEAN CITY FAIR 34 23 64 MISG 30.45R  
WALLOPS ISLAND NOT AVBL  
ACCOMACK* NOT AVBL  

 
 
NCZ012>017-030>032-230000-  
NORTH CENTRAL AND EASTERN NORTH CAROLINA  
 
CITY SKY/WX TMP DP RH WIND PRES REMARKS
 
ROANOKE RAPIDS NOT AVBL  
RALEIGH MOCLDY 38 16 40 N3 30.37R  
ELIZABETH CITY CLOUDY 41 31 67 N12 30.41R  
AHOSKIE* FAIR 37 20 50 N3 30.41R  
EDENTON* FAIR 40 33 75 NE6 30.41R  
CURRITUCK* NOT AVBL  
KILL DEVIL HLS FAIR 41 34 76 N7 30.37R  
MANTEO FAIR 41 35 79 N13 30.38R  
CAPE HATTERAS FAIR 45 38 76 NE12G21 30.33R  
TARBORO* FAIR 39 21 49 N3 30.40R  
GOLDSBORO FAIR 42 22 46 N7 30.34R  
WASHINGTON NOT AVBL  
GREENVILLE NOT AVBL  
NEW BERN FAIR 46 30 53 N12 30.35S  
WILMINGTON FAIR 46 31 55 N10 30.31R  

 
 
VAZ048-230000-  
ELSEWHERE  
 
CITY SKY/WX TMP DP RH WIND PRES REMARKS
 
HARRISBURG PA FAIR 31 19 61 CALM 30.41S  
BALTIMORE FAIR 35 17 47 S3 30.43R  
ANNAPOLIS FAIR 33 22 63 CALM 30.44S  
ANDREWS AFB FAIR 35 14 41 CALM 30.42R  
PHILADELPHIA FAIR 35 19 52 CALM 30.44S  
GREENSBORO MOCLDY 38 13 35 NE5 30.34S  
ROCKY MOUNT FAIR 35 21 56 NE5 30.38  

 
 
VAZ100-230000-  
MARINE  
 
STATION/POSITION TIME TEMP WIND PRES WAVE SWELL
 
AIR SEA DIR/SP/G HT/PER HT/PER  
(UTC) (F) (DEG/KT/KT) (MB) (FT/S) (FT/S)  
CAPE MAY NJ 2230 35 40 1030.3R  
LEWES DE 2224 37 37 1030.6  
15NM E FENWICK I 2250 37 48 360/ 6/ 10 1027.7R 3/ 5 2/ 5  
OCEAN-CITY-INLET 2224 36 41 1031.4  
WACHAPREAGUE VA 2230 36 38 1030.1R  
THOMAS POINT MD 2300 35 39 50/ 2/ 3 1031.7R  
SOLOMONS ISLAND 2224 35 42 1030.5  
PINEY POINT MD 2200 340/ 4/ 5 N/A  
POTOMAC MD 2254 35 42 340/ 8/ 8 1031.0R  
CAMBRIDGE MD 2224 36 39 1030.7  
LEWISETTA VA 2224 36 37 1030.8  
RAPPAHANNOCK LGT 2224 1031.4  
STINGRAY PT 2242 43 350/ 8/ 10 1033.6R  
YORK RVR RNG VA 2224 37 1031.1  
YORKTOWN VA 2230 37 44 1030.2R  
DOMINION TERM VA 2224 38 1030.6  
KIPTOPEKE VA 2224 40 N/A  
CAPE HENRY VA 2230 39 1030.1R  
WILLOUBY STN VA 2224 37 1030.0  
S CRANEY ISL VA 2230 38 1030.0R  
CAPE HENRY BUOY 2300 47 N/A 4/ 6  
1ST LANDING BUOY 2250 20/ 10/ 14 1029.9R  
64NM E OF VA BCH 2250 45 51 20/ 19/ 23 1028.3R 6/ 5 3/13  
DUCK PIER NC 2230 42 1027.9R  
44100 DUCK FRF 2300 48 N/A 5/ 6  
44056 DUCK FRF 2230 46 N/A 5/ 7  
OREGON INLET NC 2224 43 43 1027.4  
HATTERAS NC 2224 44 43 1026.4  
DIAMOND SHLS NC 2250 50 72 350/ 27/ 33 1025.0R 10/ 9 5/ 9  
CAPE LOOKOUT NC 2300 42 10/ 22/ 26 1026.8R  

 
 
 
CLICK HERE TO GO TO PREVIOUS BULLETINS.

The Nexlab VA Page
The Nexlab NC Page
The Nexlab MD Page Main Text Page